Simultaneous Nadir Overpasses (SNOs) Predictions

Prediction of SNOs between METOP-A and TERRA Satellite Orbit:

Table of predicted SNOs for the next 14.0 days since TLE Epoch: 3/9/2014
Index Date (METOP-A) Time (METOP-A) Lat,Lon (METOP-A) SZA (METOP-A ) Date (TERRA) Time (TERRA) Lat,Lon (TERRA) SZA (TERRA ) Distance(km) Time Diff (sec)
1 03/09/2014 19:45:20 81.35, -68.31 88.17 03/09/2014 19:45:36 81.34, -68.26 88.18 1.00 16
2 03/09/2014 20:35:59 -81.35, 99.75 91.76 03/09/2014 20:35:02 -81.36, 99.63 91.80 2.01 57
3 03/12/2014 15:19:39 81.35, -1.54 87.13 03/12/2014 15:19:46 81.35, -1.65 87.12 1.80 7
4 03/12/2014 16:10:20 -81.35, 165.77 92.89 03/12/2014 16:09:13 -81.35, 165.89 92.91 2.07 67
5 03/15/2014 10:03:20 -81.34,-103.16 94.02 03/15/2014 10:04:30 -81.34,-103.05 93.98 1.81 70
6 03/15/2014 10:53:59 81.35, 64.76 86.04 03/15/2014 10:53:56 81.34, 64.64 86.02 2.19 3
7 03/18/2014 05:37:37 -81.35, -36.11 95.03 03/18/2014 05:38:37 -81.35, -36.29 95.03 2.97 60
8 03/18/2014 06:28:17 81.35, 131.37 84.97 03/18/2014 06:28:03 81.36, 131.37 84.97 0.33 14
9 03/21/2014 01:11:57 -81.35, 30.07 96.15 03/21/2014 01:12:45 -81.35, 30.16 96.11 1.55 48




NCC Satellite Simultaneous Nadir Overpasses (SNOs) Prediction Service
